SCOUT X-4 R/B, 1815

Orbit data source: Space-Track

SCOUT X-4 R/B, 1815 is space debris in LEO originally from a launch on Mon, 06 Dec 1965 UTC launched from the Air Force Western Test Range (AFWTR). Debris objects in space refer to the collection of defunct objects orbiting the Earth. Examples of debris include non-operational satellites, rocket bodies, and fragments generated from explosions, collisions, or faulty payload assembly.

Loading next visibility...
Identifier
1815, 1965-101B
Orbit
LEO
Last TLE update
7 hours ago
Origin
Manufacturer
ABL
Mission
Spacecraft
Bus & Motor
ALTAIR, Unknown motor
Mass
33 kg wet, 33 kg dry
Launch date (UTC)
1965-12-06 (60 years ago)
Launch vehicle
Unknown
Launch site
Air Force Western Test Range (AFWTR)
Object type
Payload
Rocket body
Debris
Shape & HBR
Cyl, 1.5 m
Radar Cross Section
0.687 m², Medium (>0.1 m² and < 1m²)

Expand to show TLE details & history

TLE from 7 hours ago
0 SCOUT X-4 R/B
1 01815U 65101B   25182.58009392  .00001701  00000-0  18102-3 0  9996
2 01815  75.8412 253.2257 0006890 328.4679  31.6099 14.89415637 15981
Epoch: 2025-07-01T13:55Z
TLE epoch observation values (Epoch: 2025-07-01T13:55:20.114Z)
Latitude
0.00001°
Longitude
124.51838°
Altitude
598.441 km
Speed
7.563 km/s
True Right ascension
16h 52m 54s
True Declination
0° 00' 00"
Sunlit
Object was in full shadow at epoch
Visualization orbit readout
Latitude
32.75845°
Longitude
133.32008°
Altitude
601.862 km
Speed
7.563 km/s
Apparent Right ascension
18h 42m 01s
Apparent Declination
-1° 46' 43"
Sunlit
Object is in full shadow
Visualization observer readout
Local Sidereal Time
08:11:24
Azimuth
33.717° NE
Elevation
-46.8°
Doppler factor
1
Orbital elements
Apogee altitude
601.982 km
Perigee altitude
592.37 km
Semi-major axis
6,975.313 km
Eccentricity
0.00069
Inclination
75.8412°
RAAN
253.2257°
Arg. of periapsis
328.4679°
True anomaly
Unknown
Mean anomaly
31.6099°
Eccentric anomaly
Unknown
Mean motion
3.72561 °/min
Orbital period
96.63 mins
BSTAR
0.00018102
Loading maneuver chart data...
Loading SW <> Apogee altitude chart data...
Loading historical data...
Loading historical data...
Loading historical data...
Loading historical data...
Loading historical data...
Loading historical data...
Loading historical data...

SCOUT X-4 R/B Visibility forecast

Observer location: undefined°, undefined°

Span
Click to sort rows by Start time (UTC) header in descending order
Start Az.
Max El. time (UTC)
Max El. Az.
Max El.
End time (UTC)
End Az.
6 mins2025-07-02 06:11:18.158Z217.405° SW2025-07-02 06:14:18.158Z306.891° NW38.68°2025-07-02 06:17:18.158Z3.834° NNE
7 mins2025-07-02 16:17:18.158Z338.175° N2025-07-02 16:20:18.158Z253.563° W44.026°2025-07-02 16:24:18.158Z171.018° S
|